Regional Weather Roundup
Issued by NWS Kansas City/Pleasant Hill, MO

Home | Current Version | Previous Version | Text Only | Print | Product List | Glossary On
Versions: 1 2 3 4 5 6 7 8 9 10 11 12 13 14 15 16 17 18 19 20 21 22 23 24 25 26 27
000
ASUS43 KEAX 291410
RWREAX

WEATHER ROUNDUP FOR EASTERN KANSAS AND NORTHWEST MISSOURI
NATIONAL WEATHER SERVICE KANSAS CITY/PLEASANT HILL MO
900 AM CDT SUN MAY 29 2016

KSZ040-057-103>105-MOZ028-029-037-043-291500-
...KANSAS CITY METROPOLITAN AREA...

CITY           SKY/WX    TMP DP  RH WIND       PRES   REMARKS
K.C. INTL      SUNNY     72  62  71 NW6       30.11R
K.C. DOWNTOWN  SUNNY     74  63  68 CALM      30.10R
LEES SUMMIT    SUNNY     73  62  68 SW6       30.11R
OLATHE - IXD   SUNNY     74  62  66 SW5       30.12R
OLATHE - OJC   SUNNY     73  62  68 SW5       30.11R
LAWRENCE       SUNNY     71  64  78 S3        30.10R

$$

MOZ001>008-011>017-020>025-030>033-038>040-044>046-053-054-291500-
...NORTHERN AND CENTRAL MISSOURI...

CITY           SKY/WX    TMP DP  RH WIND       PRES   REMARKS
ST. JOSEPH     SUNNY     69  61  75 S6        30.10R
MOSBY            N/A     68  61  77 CALM      30.10S
WARRENSBURG    SUNNY     73  63  68 SW5       30.10S
WHITEMAN AFB   SUNNY     74  65  74 W6        30.10R
CLINTON        SUNNY     73  66  78 CALM      30.12R
SEDALIA        SUNNY     76  65  68 W5        30.12R
WARSAW         NOT AVBL
CHILLICOTHE      N/A     72  63  73 VRB6      30.11R
KIRKSVILLE     SUNNY     70  61  73 W8        30.11R

$$

MOZ041-047>049-056>058-063>065-088>090-097-291500-
...EASTERN AND SOUTHERN MISSOURI...

CITY           SKY/WX    TMP DP  RH WIND       PRES   REMARKS
ST. LOUIS INTL MOSUNNY   77  64  64 W6        30.10R
SPIRIT OF STL  MOSUNNY   76  66  71 W6        30.09R
COLUMBIA       SUNNY     75  64  68 W6        30.11R
JEFFERSON CITY SUNNY     73  66  78 CALM      30.10R
ROLLA          SUNNY     72  66  81 W6        30.12R
SPRINGFIELD    SUNNY     74  67  78 W9        30.15R
BRANSON        CLOUDY    72  66  83 CALM      30.17R
JOPLIN         MOSUNNY   75  70  84 SW7       30.15R
WEST PLAINS    SUNNY     76  65  68 VRB5      30.16R

$$

IAZ060-094-KSZ022-034>040-054-083-096-NEZ052-066-093-291500-
...KANSAS...SOUTHEAST NEBRASKA AND IOWA...

CITY           SKY/WX    TMP DP  RH WIND       PRES   REMARKS
TOPEKA         SUNNY     73  61  65 W3        30.10R
MANHATTAN      SUNNY     71  60  68 W6        30.11R
EMPORIA        SUNNY     73  65  75 SW6       30.12R
CHANUTE        SUNNY     73  67  81 S5        30.12R
WICHITA        MOSUNNY   74  67  78 SW6       30.11R
OMAHA          PTSUNNY   66  60  81 CALM      30.09R
LINCOLN        PTSUNNY   66  58  75 S7        30.10R
FALLS CITY     MOSUNNY   70  61  73 CALM      30.09R
LAMONI         SUNNY     68  61  78 NW7       30.09R
DES MOINES     MOSUNNY   67  58  72 W7        30.07R

$$





USA.gov is the U.S. government's official web portal to all federal, state and local government web resources and services.